Regional Weather Roundup
Issued by NWS Upton, NY

Home | Current Version | Previous Version | Text Only | Print | Product List | Glossary On
Versions: 1 2 3 4 5 6 7 8 9 10 11 12 13 14 15 16 17 18 19 20 21 22 23 24 25 26 27 28 29 30 31 32 33 34 35 36 37 38 39 40 41 42 43 44 45 46 47 48 49 50
000
ASUS41 KOKX 282108
RWROKX

REGIONAL WEATHER ROUNDUP
NATIONAL WEATHER SERVICE NEW YORK NY
500 PM EDT WED SEP 28 2016

NOTE: "FAIR" INDICATES FEW OR NO CLOUDS BELOW 12,000 FEET WITH NO
SIGNIFICANT WEATHER AND/OR OBSTRUCTIONS TO VISIBILITY.

NYZ071-072-176-178-NJZ106-104-282200-
NEW YORK CITY METRO AREA

CITY           SKY/WX    TMP DP  RH WIND       PRES   REMARKS
Central Park   CLOUDY    65  54  67 NE10G25   30.17R
LaGuardia APRT CLOUDY    67  56  67 NE21      30.14R
Kennedy INTL   CLOUDY    65  55  70 NE17G23   30.14S
Newark/Liberty CLOUDY    67  56  67 NE14G21   30.13R
Bronx Bot Gard   N/A     63  52  67 NE3       30.15F
Wall St Helipt CLOUDY    70  61  73 NE17G23   30.14R
Teterboro      CLOUDY    66  53  63 NE12      30.13R
$$

NYZ177-179-078>081-282200-
LONG ISLAND NEW YORK

CITY           SKY/WX    TMP DP  RH WIND       PRES   REMARKS
Farmingdale    CLOUDY    64  55  72 NE15G22   30.14S
MacArthur/ISP  CLOUDY    64  56  75 NE14G22   30.15S
Shirley        CLOUDY    62  56  80 VRB5      30.16S
Riverhead      NOT AVBL
Westhampton    CLOUDY    62  56  80 NE15G24   30.18R
Southampton      N/A     61  57  88 NE9       30.13S
Bridgehampton    N/A     59  55  88 E5        30.03R
East Hampton   CLOUDY    59  56  88 NE10G21   30.17R
Montauk          N/A     60  55  83 NE15G25   30.19R
$$

NYZ052-065-067-282200-
HUDSON VALLEY

CITY           SKY/WX    TMP DP  RH WIND       PRES   REMARKS
White Plains   PTSUNNY   62  52  69 NE10      30.16S
Newburgh       PTSUNNY   64  55  72 E17G23    30.18S
Montgomery     PTSUNNY   66  53  63 E14       30.16R
Poughkeepsie   CLOUDY    62  50  64 E10       30.18R
Albany         MOSUNNY   65  50  58 E7        30.21R
$$

NJZ001-105-106-008-010-013-015-019>022-104-282200-
NEW JERSEY

CITY           SKY/WX    TMP DP  RH WIND       PRES   REMARKS
Newark/Liberty CLOUDY    67  56  67 NE14G21   30.13R
Teterboro      CLOUDY    66  53  63 NE12      30.13R
Caldwell       CLOUDY    65  55  70 E13       30.15R
Morristown     CLOUDY    64  57  77 E13G22    30.14R
Somerville     CLOUDY    68  57  68 VRB7      30.10R
Linden         NOT AVBL
Sussex         CLOUDY    65  55  70 NE13      30.14R
Abdover          N/A     65  56  72 NE5       30.14R
Trenton        CLOUDY    67  59  75 E12       30.10R
Millville      LGT RAIN  68  67  96 E14G22    30.05R FOG
Atlantic City  CLOUDY    66  63  90 NE18G25   30.06R FOG
Wrightstown    CLOUDY    63  61  93 NE18G25   30.07S
Toms River     LGT RAIN  63  62  97 NE16G26   30.10F FOG
Belmar         CLOUDY    64  59  83 NE14G23   30.13R
$$

PAZ047>061-062-071-282200-
EASTERN PENNSYLVANIA

CITY           SKY/WX    TMP DP  RH WIND       PRES   REMARKS
Philadelphia   CLOUDY    67  62  84 E21G30    30.07R
Allentown      LGT RAIN  68  59  73 E8        30.10S
Scranton       PTSUNNY   67  54  63 VRB6      30.13R
$$

CTZ002-004>006-009-010-012-RIZ004-006-007-MAZ004-011-015-282200-
SOUTHERN NEW ENGLAND
 IN CT

CITY           SKY/WX    TMP DP  RH WIND       PRES   REMARKS
Bradley INTL   CLOUDY    58  49  72 NE14      30.24R
Hartford       CLOUDY    59  51  75 NE15      30.23R
Danbury        CLOUDY    59  51  75 NE8       30.19F
Wtrbury/Oxford CLOUDY    57  48  72 E12G21    30.21R
Bridgeport     CLOUDY    64  53  67 NE12G20   30.17S
Meriden        CLOUDY    62  51  67 NE8       30.20S
New Haven      CLOUDY    62  53  72 NE16      30.18S
Chester        CLOUDY    59  52  77 NE9G22    30.19S
Groton         CLOUDY    61  53  75 NE22G30   30.19R
Wilimantic     CLOUDY    59  52  77 NE15G23   30.23R

 IN RI

CITY           SKY/WX    TMP DP  RH WIND       PRES   REMARKS
Providence     CLOUDY    56  52  86 N17G24    30.24R
Block Island   CLOUDY    59  56  89 NE20G26   30.18R
Westerly       CLOUDY    59  51  75 NE13G22   30.21R
 IN MA

CITY           SKY/WX    TMP DP  RH WIND       PRES   REMARKS
Boston         CLOUDY    57  52  83 NE17      30.27S
Worcester      CLOUDY    51  47  86 NE10G23   30.26R
Westfield      CLOUDY    58  50  75 NE8       30.25R
Provincetown   LGT RAIN  59  57  93 NE20G26   30.22S FOG
Nantucket      CLOUDY    61  58  90 NE20G28   30.16R FOG
$$

ANZ330-335-338-340-345-350-353-355-282200-
COASTAL MARINE OBSERVATIONS


STATION/POSITION TIME  SKY/WX   TEMP    WIND        PRES    VSBY  WAVE
                                AIR SEA DIR/SP/G                  HT/PER
                 (UTC)          (F)     (DEG/KT/KT) (MB)    (MI)  (FT/S)
NY HARB ENTRANCE 2050            65 71   60/ 21/ 27 1019.4          6/ 6
20S FIRE ISLAND  2050            65 69   60/ 27/ 31 1018.7          8/ 8
GREAT SOUTH BAY  2015            65 69   50/ 14/ 23   N/A
23 SSW MONTAUK P 2050            62 67   40/ 25/ 33 1020.6          8/ 6
15 E BARNEGAT LI 2030               70                N/A           8/ 7
HUDSON CANYON    1950            67 68              1017.6          7/ 6
KINGS POINT      2036            64 72              1020.5
EXECUTION ROCKS  2045            65      50/ 17/ 23   N/A
CENTRAL LI SOUND NOT AVBL
EASTERN LI SOUND NOT AVBL
ROBBINS REEF     2048            65      60/ 20/ 22 1020.3
$$


>>>>>>>>>>>>>>>>>>>>>>>>>>>> KEY <<<<<<<<<<<<<<<<<<<<<<<<<<<
>                                                          <
>     SKY/WX - Sky Condition/Present Weather               <
>     TMP    - Temperature in Fahrenheit                   <
>     DP     - Dew Point in Fahrenheit                     <
>     RH     - Relative Humidity in Percent                <
>     WIND   - Direction (from) and Speed in MPH           <
>     PRES   - Mean Sea Level Pressure (inches of Hg)      <
>     WCI    - Wind Chill Index                            <
>     VSB    - VISIBILITY IN MILES                         <
>     HX     - HEAT INDEX                                  <
>     TC     - TEMPERATURE IN CELSIUS                      <
>     VRB    - VARIABLE WIND DIRECTION                     <
>                                                          <
>>>>>>>>>>>>>>>>>>>>>>>>>>>> KEY <<<<<<<<<<<<<<<<<<<<<<<<<<<




USA.gov is the U.S. government's official web portal to all federal, state and local government web resources and services.